Location: Baix
(44.7118°N, 4.7648°E)
Time: 01:25:50
(UTC+00:00)

Cosmos 1809 Rocket - Pass Details

Date: 07 August 2020
Orbit: 942 x 962 km, 82.5° (Epoch: 27 September)

Event Time Altitude Azimuth Distance (km) Brightness Sun altitude
Rises 03:05:22 0° 348° (NNW) 3,620 7.9 -14.1°
Reaches altitude 10° 03:07:52 10° 345° (NNW) 2,673 7.1 -13.8°
Maximum altitude 03:13:53 63° 266° (W) 1,055 4.5 -13.0°
Drops below altitude 10° 03:19:53 10° 187° (S) 2,666 6.4 -12.1°
Enters shadow 03:22:01 - 184° (S) 3,467 7.0 -11.8°
